{"data":{"norad_id":68888,"intl_designator":"2026-095AA","name":"KUIPER-00511","alt_names":[],"object_type":"PAYLOAD","status":"ACTIVE","operator":null,"country":"US","launch_date":"2026-04-28","launch_site_code":"AFETR","launch_vehicle":null,"mission":null,"orbit_class":"UNKNOWN","rcs_meters":null,"size_class":null,"mass_kg":null,"dimensions":null,"purposes":[],"wikipedia_slug":null,"has_3d_model":false,"image_url":null,"decayed_at":null,"tle_current":{"epoch":"2026-09-19T11:04:19.164288Z","epoch_age_seconds":105294,"freshness":"FRESH","line1":"1 68888U 26095AA  26262.46133292  .00000719  00000+0  12333-3 0  9999","line2":"2 68888  51.9014 171.3818 0001068  76.4425 283.6656 14.79928091 21887","mean_motion":14.79928091,"eccentricity":0.0001068,"inclination_deg":51.9014,"raan_deg":171.3818,"arg_perigee_deg":76.4425,"mean_anomaly_deg":283.6656,"bstar":0.00012333,"rev_number":2188,"period_min":97.302024926561,"perigee_km":628.80270462255,"apogee_km":630.2995468062,"semimajor_km":7007.6881257144,"source":"CELESTRAK","updated_at":"2026-09-20T09:00:24.541325Z"}}}